INTELSAT 22 (IS-22) (38098 NORAD) Tracking and Keplerian Element Data

This shows tracking and keplerian element data for the satellite.

Feedback or suggestion? Click here.




ElementValue
Catalog38098
NameINTELSAT 22 (IS-22)
Epoch Orbit4316
Epoch Day13.09843368
Epoch Year2024
RAAN76.5976
Inclination0.0339
Eccentricity0.0003267
Argument of Perigee217.7707
Mean Anonmoly285.2414
Mean Motion1.00270384
Decay Rate-5E-07
L11 38098U 12011A 24013.09843368 -.00000050 00000+0 00000+0 0 9998
L22 38098 0.0339 76.5976 0003267 217.7707 285.2414 1.00270384 43169



Live tracking and technical data element details for INTELSAT 22 (IS-22) (NORAD 38098). INTELSAT 22 (IS-22) can be tracked NOW for your location showing map with azimuth and elevation plus other details from your city location.







IsCatalogInMostPopularTable: catalog: 38098, numindb: 721
Update: records affected: 1



GetName: 38098 INTELSAT 22 (IS-22)

Hit Count: updated at: Fri, 19 Apr 2024 13:14:34 GMT